TimeEST,TemperatureF,Dew PointF,Humidity,Sea Level PressureIn,VisibilityMPH,Wind Direction,Wind SpeedMPH,Gust SpeedMPH,PrecipitationIn,Events,Conditions,WindDirDegrees,DateUTC
1:51 AM,36.9,23.0,57,29.92,10.0,West,6.9,-,0.00,,Clear,280,2012-01-29 06:51:00
2:51 AM,36.9,15.1,41,29.94,10.0,WNW,11.5,27.6,N/A,,Clear,290,2012-01-29 07:51:00
3:51 AM,36.0,14.0,41,29.97,10.0,WNW,10.4,-,N/A,,Clear,290,2012-01-29 08:51:00
4:51 AM,34.0,13.1,42,29.99,10.0,WNW,12.7,-,N/A,,Clear,290,2012-01-29 09:51:00
5:51 AM,34.0,12.0,40,30.01,10.0,WNW,12.7,-,N/A,,Clear,290,2012-01-29 10:51:00
6:51 AM,32.9,13.1,44,30.03,10.0,West,9.2,-,N/A,,Clear,280,2012-01-29 11:51:00
7:51 AM,34.0,14.0,44,30.05,10.0,West,11.5,-,N/A,,Clear,280,2012-01-29 12:51:00
8:51 AM,34.9,14.0,42,30.06,10.0,West,17.3,27.6,N/A,,Clear,280,2012-01-29 13:51:00
9:51 AM,36.9,13.1,38,30.07,10.0,WNW,10.4,-,N/A,,Clear,290,2012-01-29 14:51:00
10:51 AM,37.9,14.0,38,30.07,10.0,WSW,8.1,-,N/A,,Clear,240,2012-01-29 15:51:00
11:51 AM,39.9,13.1,33,30.05,10.0,West,10.4,-,N/A,,Clear,260,2012-01-29 16:51:00
12:51 PM,41.0,11.1,29,30.02,10.0,West,12.7,-,N/A,,Clear,270,2012-01-29 17:51:00
1:51 PM,41.0,12.0,31,30.00,10.0,West,9.2,-,N/A,,Clear,270,2012-01-29 18:51:00
2:51 PM,41.0,12.0,31,30.00,10.0,Variable,6.9,-,N/A,,Clear,0,2012-01-29 19:51:00
3:51 PM,41.0,12.0,31,30.00,10.0,West,8.1,18.4,N/A,,Scattered Clouds,270,2012-01-29 20:51:00
4:51 PM,38.8,11.1,32,30.01,10.0,Variable,3.5,-,N/A,,Scattered Clouds,0,2012-01-29 21:51:00
5:51 PM,36.0,13.1,39,30.02,10.0,Calm,Calm,-,N/A,,Clear,0,2012-01-29 22:51:00
6:51 PM,34.9,14.0,42,30.03,10.0,Variable,3.5,-,N/A,,Clear,0,2012-01-29 23:51:00
7:51 PM,34.0,14.0,44,30.03,10.0,Variable,3.5,-,N/A,,Clear,0,2012-01-30 00:51:00
8:51 PM,32.9,15.1,48,30.03,10.0,Calm,Calm,-,N/A,,Clear,0,2012-01-30 01:51:00
9:51 PM,32.0,16.2,52,30.02,10.0,Calm,Calm,-,N/A,,Clear,0,2012-01-30 02:51:00
10:51 PM,32.9,16.2,50,30.01,10.0,Calm,Calm,-,N/A,,Clear,0,2012-01-30 03:51:00
11:51 PM,34.0,16.2,48,30.00,10.0,Calm,Calm,-,N/A,,Clear,0,2012-01-30 04:51:00